Terug naar catalogus

STARLINK-2457

ActiefCommunicatieVLEO
NORAD 48321·PAYLOAD·🇺🇸 United States

Gelanceerd Apr 29, 2021 vanaf Cape Canaveral Space Force Station

Loading…

Volgende Passages (komende 24 uur)

TLE

VersSource: CelesTrak SupGP

Epoch: Sep 14, 2026, 21:28 UTC

1 48321C 21036AX  26257.89493056  .00013047  00000+0  41950-3 0  2579
2 48321  53.1587 300.5497 0001357  77.3133 163.7378 15.31700523    10

Volg STARLINK-2457 in realtime met AllMySat

Download on the App Store